Carrollton, GA

9:06 PM EST on January 20, 2018 (GMT -0500)
West Georgia Regional-Gray

Weather History for KCTJ - April, 2013

Change the Weather History Date:

Sunday, April 28, 2013

  Actual Average Record
Temperature  
Mean Temperature 60 °F -  
Max Temperature 64 °F 76 °F 87 °F (1970)
Min Temperature 57 °F 48 °F 33 °F (1967)
Degree Days  
Heating Degree Days 4    
Growing Degree Days 10 (Base 50)    
Moisture  
Dew Point 59 °F    
Average Humidity 96    
Maximum Humidity 100    
Minimum Humidity 94    
Precipitation  
Precipitation 0.00 in - - ()
Sea Level Pressure  
Sea Level Pressure 30.07 in    
Wind  
Wind Speed 6 mph (SE)    
Max Wind Speed 10 mph    
Max Gust Speed -    
Visibility 8 miles    
Events Rain , Thunderstorm    
Averages and records for this station are not official NWS values.
T = Trace of Precipitation, MM = Missing Value Source: NWS Daily Summary

Daily Weather History Graph

Daily Weather History Graph

Search for Another Location

Airport or City:

Trip Planner

Search our weather history database for the weather conditions in past years. The results will help you decide how hot, cold, wet, or windy it might be!

Date:

Astronomy

Apr. 28, 2013 Rise Set
Actual Time 6:54 AM EDT 8:21 PM EDT
Civil Twilight 6:28 AM EDT 8:48 PM EDT
Nautical Twilight 5:57 AM EDT 9:19 PM EDT
Astronomical Twilight 5:24 AM EDT 9:52 PM EDT
Moon 11:46 PM EDT (4/28) 9:15 AM EDT (4/28)
Length of Visible Light 14h 19m
Length of Day
13h 26m
Waning Gibbous, 89% of the Moon is Illuminated
Apr 28
Waning Gibbous
May 2
Last Quarter
May 9
New
May 18
First Quarter
May 25
Full

Hourly Weather History & Observations

Time (EDT) Temp. Dew Point Humidity Pressure Visibility Wind Dir Wind Speed Gust Speed Precip Events Conditions
12:15 AM 59.0 °F 57.2 °F 94% 30.17 in 10.0 mi North 10.4 mph - N/A Rain Rain
12:35 AM 59.0 °F 57.2 °F 94% 30.15 in 10.0 mi East 4.6 mph - N/A Rain Light Rain
12:55 AM 59.0 °F 57.2 °F 94% 30.16 in 7.0 mi East 5.8 mph - N/A Rain Rain
1:15 AM 59.0 °F 57.2 °F 94% 30.16 in 10.0 mi ESE 5.8 mph - N/A   Overcast
1:35 AM 59.0 °F 57.2 °F 94% 30.14 in 10.0 mi ESE 4.6 mph - N/A Rain Light Rain
1:55 AM 59.0 °F 57.2 °F 94% 30.14 in 10.0 mi ESE 4.6 mph - N/A Rain , Thunderstorm Light Thunderstorms and Rain
2:15 AM 59.0 °F 57.2 °F 94% 30.14 in 10.0 mi Calm Calm - N/A Rain Light Rain
2:35 AM 59.0 °F 57.2 °F 94% 30.13 in 10.0 mi SE 4.6 mph - N/A   Overcast
2:55 AM 59.0 °F 57.2 °F 94% 30.12 in 10.0 mi SE 4.6 mph - N/A   Overcast
3:15 AM 59.0 °F 57.2 °F 94% 30.12 in 10.0 mi ESE 4.6 mph - N/A   Overcast
3:35 AM 59.0 °F 57.2 °F 94% 30.09 in 10.0 mi ESE 8.1 mph - N/A   Overcast
3:55 AM 59.0 °F 57.2 °F 94% 30.09 in 10.0 mi ESE 8.1 mph - N/A   Overcast
4:15 AM 59.0 °F 57.2 °F 94% 30.09 in 10.0 mi SE 5.8 mph - N/A   Overcast
4:35 AM 59.0 °F 57.2 °F 94% 30.08 in 10.0 mi SE 4.6 mph - N/A   Overcast
4:55 AM 59.0 °F 57.2 °F 94% 30.08 in 10.0 mi SE 6.9 mph - N/A   Overcast
5:15 AM 59.0 °F 57.2 °F 94% 30.08 in 10.0 mi SE 4.6 mph - N/A   Overcast
5:35 AM 59.0 °F 57.2 °F 94% 30.08 in 7.0 mi SE 4.6 mph - N/A   Overcast
5:55 AM 59.0 °F 57.2 °F 94% 30.08 in 7.0 mi SE 5.8 mph - N/A   Overcast
6:15 AM 59.0 °F 57.2 °F 94% 30.08 in 7.0 mi SSE 9.2 mph - N/A   Overcast
6:35 AM 59.0 °F 57.2 °F 94% 30.07 in 7.0 mi SSE 10.4 mph - N/A   Overcast
6:55 AM 59.0 °F 59.0 °F 100% 30.07 in 7.0 mi SSE 10.4 mph - N/A Rain Light Rain
7:15 AM 59.0 °F 59.0 °F 100% 30.08 in 7.0 mi SSE 8.1 mph - N/A Rain Light Rain
7:35 AM 59.0 °F 59.0 °F 100% 30.07 in 7.0 mi SSE 10.4 mph - N/A Rain Light Rain
7:55 AM 59.0 °F 59.0 °F 100% 30.09 in 7.0 mi South 8.1 mph - N/A Rain Rain
8:15 AM 59.0 °F 59.0 °F 100% 30.09 in 7.0 mi South 9.2 mph - N/A   Drizzle
8:35 AM 59.0 °F 59.0 °F 100% 30.10 in 7.0 mi SSE 8.1 mph - N/A   Drizzle
9:15 AM 60.8 °F 59.0 °F 94% 30.10 in 7.0 mi South 5.8 mph - N/A   Overcast
9:35 AM 60.8 °F 59.0 °F 94% 30.10 in 7.0 mi South 5.8 mph - N/A   Overcast
9:55 AM 60.8 °F 59.0 °F 94% 30.10 in 5.0 mi South 3.5 mph - N/A Rain Light Rain
10:15 AM 60.8 °F 59.0 °F 94% 30.10 in 4.0 mi Calm Calm - N/A Rain Light Rain
10:35 AM 60.8 °F 60.8 °F 100% 30.09 in 4.0 mi SSE 3.5 mph - N/A   Light Drizzle
10:55 AM 60.8 °F 60.8 °F 100% 30.10 in 5.0 mi SSE 4.6 mph - N/A Rain Light Rain
11:15 AM 60.8 °F 60.8 °F 100% 30.09 in 5.0 mi South 4.6 mph - N/A Thunderstorm Overcast
11:35 AM 62.6 °F 60.8 °F 94% 30.08 in 5.0 mi South 4.6 mph - N/A   Overcast
11:55 AM 62.6 °F 60.8 °F 94% 30.08 in 7.0 mi South 5.8 mph - N/A   Overcast
12:15 PM 64.4 °F 62.6 °F 94% 30.07 in 10.0 mi SSE 6.9 mph - N/A Rain Light Rain
12:35 PM 64.4 °F 62.6 °F 94% 30.07 in 10.0 mi South 4.6 mph - N/A Rain Light Rain
12:55 PM 64.4 °F 62.6 °F 94% 30.06 in 7.0 mi SSE 5.8 mph - N/A Rain Rain
1:15 PM 64.4 °F 62.6 °F 94% 30.05 in 10.0 mi SSE 4.6 mph - N/A   Overcast
1:35 PM 64.4 °F 62.6 °F 94% 30.05 in 10.0 mi SSE 6.9 mph - N/A Rain Light Rain
1:55 PM 64.4 °F 62.6 °F 94% 30.05 in 10.0 mi SE 4.6 mph - N/A   Overcast
2:15 PM 64.4 °F 62.6 °F 94% 30.05 in 10.0 mi Calm Calm - N/A Rain Light Rain
2:35 PM 64.4 °F 62.6 °F 94% 30.05 in 5.0 mi Calm Calm - N/A Rain , Thunderstorm Light Thunderstorms and Rain
2:55 PM 64.4 °F 62.6 °F 94% 30.05 in 3.0 mi Calm Calm - N/A Rain , Thunderstorm Light Thunderstorms and Rain
3:15 PM 64.4 °F 62.6 °F 94% 30.04 in 1.8 mi Calm Calm - N/A Rain Rain
3:35 PM 62.6 °F 62.6 °F 100% 30.05 in 5.0 mi SE 9.2 mph - N/A Rain , Thunderstorm Light Thunderstorms and Rain
3:55 PM 62.6 °F 60.8 °F 94% 30.03 in 5.0 mi ESE 4.6 mph - N/A Rain Rain
4:15 PM 60.8 °F 60.8 °F 100% 30.04 in 7.0 mi SSE 6.9 mph - N/A Rain Rain
4:55 PM 62.6 °F 60.8 °F 94% 30.04 in 10.0 mi Calm Calm - N/A Rain Light Rain
5:15 PM 62.6 °F 60.8 °F 94% 30.04 in 10.0 mi NNE 3.5 mph - N/A Rain Light Rain
5:35 PM 62.6 °F 60.8 °F 94% 30.04 in 10.0 mi North 10.4 mph - N/A Rain Light Rain
5:55 PM 60.8 °F 59.0 °F 94% 30.04 in 10.0 mi North 8.1 mph - N/A Rain Light Rain
6:15 PM 59.0 °F 59.0 °F 100% 30.05 in 7.0 mi NNE 4.6 mph - N/A Rain Light Rain
6:35 PM 59.0 °F 57.2 °F 94% 30.05 in 3.0 mi NW 3.5 mph - N/A Rain Heavy Rain
6:55 PM 59.0 °F 57.2 °F 94% 30.04 in 3.0 mi North 5.8 mph - N/A Rain Heavy Rain
7:15 PM 59.0 °F 57.2 °F 94% 30.04 in 3.0 mi Calm Calm - N/A Rain , Thunderstorm Rain
7:35 PM 59.0 °F 57.2 °F 94% 30.04 in 10.0 mi Calm Calm - N/A Rain Light Rain
8:15 PM 59.0 °F 57.2 °F 94% 30.03 in 10.0 mi Calm Calm - N/A   Drizzle
8:35 PM 59.0 °F 57.2 °F 94% 30.02 in 10.0 mi Calm Calm - N/A   Drizzle
8:55 PM 59.0 °F 57.2 °F 94% 30.02 in 10.0 mi Calm Calm - N/A   Overcast
9:15 PM 57.2 °F 57.2 °F 100% 30.01 in 10.0 mi Calm Calm - N/A   Scattered Clouds
9:35 PM 57.2 °F 57.2 °F 100% 30.02 in 10.0 mi Calm Calm - N/A   Mostly Cloudy
9:55 PM 57.2 °F 57.2 °F 100% 30.02 in 10.0 mi SE 4.6 mph - N/A   Mostly Cloudy
10:15 PM 57.2 °F 55.4 °F 94% 30.02 in 10.0 mi SE 4.6 mph - N/A   Overcast
10:35 PM 57.2 °F 57.2 °F 100% 30.02 in 10.0 mi SE 6.9 mph - N/A   Overcast
10:55 PM 57.2 °F 57.2 °F 100% 30.02 in 10.0 mi SE 6.9 mph - N/A   Overcast
11:15 PM 57.2 °F 57.2 °F 100% 30.01 in 10.0 mi SE 3.5 mph - N/A   Light Drizzle
11:55 PM 57.2 °F 57.2 °F 100% 30.01 in 10.0 mi Calm Calm - N/A   Overcast